This demonstration page uses our WeatherBlox Daily Observations layout. Learn more.

Left ArrowRight Arrow

39.51506, -84.39828

Hourly Observations for March 15, 2015

Temp ( °F °C ) Dew Point ( °F °C ) Humidity (%) Winds ( mph kmh ) Pressure ( in mb ) Visibility ( mi km ) Precip ( " mm )
12:15 am 00:15 Clear 42 5.8 36 2.4 79 79 N N/A 30.15 1021 10 16 N/A
12:35 am 00:35 Clear 40 4.3 33 0.7 78 78 N N/A 30.18 1022 10 16 N/A
12:55 am 00:55 Clear 42 5.5 37 3 84 84 N N/A 30.15 1021 10 16 N/A
1:15 am 01:15 Clear 40 4.5 37 2.5 87 87 N N/A 30.15 1021 10 16 N/A
1:35 am 01:35 Clear 39 4 36 2 87 87 N N/A 30.18 1022 10 16 N/A
1:55 am 01:55 Clear 39 4 36 2.2 88 88 SW 5 7 30.18 1022 10 16 N/A
2:15 am 02:15 Clear 37 2.5 33 0.8 89 89 N N/A 30.18 1022 10 16 N/A
2:35 am 02:35 Clear 39 3.8 36 2 88 88 N N/A 30.18 1022 10 16 N/A
2:55 am 02:55 Clear 36 2.3 33 0.6 89 89 N N/A 30.21 1023 10 16 N/A
3:15 am 03:15 Clear 37 2.6 34 0.9 89 89 N N/A 30.21 1023 10 16 N/A
3:35 am 03:35 Clear 35 1.4 32 -0.2 89 89 N N/A 30.21 1023 7 11 N/A
3:55 am 03:55 Clear 34 1.2 32 -0.2 91 91 N N/A 30.21 1023 10 16 N/A
4:15 am 04:15 Clear 34 1.2 32 -0.2 91 91 N N/A 30.21 1023 10 16 N/A
4:35 am 04:35 Clear with Mist and Fog 35 1.4 32 -0.2 89 89 N N/A 30.21 1023 5 8 N/A
4:55 am 04:55 Clear 34 1.2 32 -0.2 91 91 N N/A 30.21 1023 10 16 N/A
5:15 am 05:15 Clear 34 1.2 32 -0.2 91 91 N N/A 30.24 1024 10 16 N/A
5:35 am 05:35 Clear 34 1.2 32 -0.2 91 91 N N/A 30.24 1024 10 16 N/A
5:55 am 05:55 Clear 34 1.2 32 -0.1 91 91 NE 3 6 30.24 1024 10 16 N/A
6:15 am 06:15 Clear 34 1.2 32 -0.2 91 91 N N/A 30.24 1024 10 16 N/A
6:35 am 06:35 Clear 34 1.2 32 -0.2 91 91 N N/A 30.24 1024 10 16 N/A
6:55 am 06:55 Clear 34 1.2 32 -0.2 91 91 N N/A 30.27 1025 7 11 N/A
7:15 am 07:15 Clear 34 1.2 32 -0.2 91 91 N N/A 30.27 1025 7 11 N/A
7:35 am 07:35 Clear 34 1.2 32 -0.1 91 91 SW 5 7 30.27 1025 7 11 N/A
7:55 am 07:55 Sunny with Mist and Fog 34 1.2 32 -0.2 91 91 SW 3 6 30.27 1025 5 8 N/A
8:15 am 08:15 Sunny with Mist and Fog 34 1.2 32 -0.2 91 91 N N/A 30.27 1025 2 3 N/A
8:35 am 08:35 Sunny with Mist and Fog 34 1.2 32 -0.2 91 91 NE 3 6 30.30 1026 2 3 N/A
8:55 am 08:55 Sunny with Mist and Fog 37 2.6 34 1 89 89 ENE 3 6 30.30 1026 5 8 N/A
9:15 am 09:15 Sunny 39 4 36 2.4 89 89 N N/A 30.30 1026 10 16 N/A
9:55 am 09:55 Sunny 44 6.8 33 0.6 65 65 N 5 7 30.30 1026 10 16 N/A
10:15 am 10:15 Sunny 47 8.2 32 0.2 57 57 N 6 9 30.30 1026 10 16 N/A
10:35 am 10:35 Sunny 49 9.6 33 0.5 53 53 NW 7 11 30.30 1026 10 16 N/A
10:55 am 10:55 Sunny 49 9.6 32 undefined 52 52 N 7 11 30.30 1026 10 16 N/A
11:15 am 11:15 Sunny 49 9.6 31 -0.4 50 50 NW 6 9 30.30 1026 10 16 N/A
11:35 am 11:35 Sunny 50 9.8 30 -1.3 46 46 N 9 15 30.30 1026 10 16 N/A
11:55 am 11:55 Sunny 52 11.2 31 -0.3 45 45 N 7 11 30.30 1026 10 16 N/A
12:15 pm 12:15 Sunny 55 12.5 32 undefined 43 43 N 7 11 30.30 1026 10 16 N/A
12:35 pm 12:35 Sunny 55 12.5 31 -0.3 42 42 WNW 5 7 30.30 1026 10 16 N/A
12:55 pm 12:55 Sunny 55 12.5 31 -0.6 41 41 N 5 7 30.30 1026 10 16 N/A
1:15 pm 13:15 Sunny 56 13.1 31 -0.4 40 40 WNW 5 7 30.30 1026 10 16 N/A
1:35 pm 13:35 Sunny 57 13.8 32 -0.1 39 39 N 5 7 30.30 1026 10 16 N/A
1:55 pm 13:55 Sunny 57 13.8 31 -0.6 37 37 N N/A 30.27 1025 10 16 N/A
2:15 pm 14:15 Sunny 59 14.9 31 -0.3 36 36 W 9 15 30.27 1025 10 16 N/A
2:35 pm 14:35 Sunny 60 15.3 31 -0.5 34 34 N N/A 30.27 1025 10 16 N/A
2:55 pm 14:55 Sunny 60 15.3 32 -0.2 35 35 WSW 5 7 30.27 1025 10 16 N/A
3:15 pm 15:15 Sunny 60 15.7 32 -0.2 34 34 WSW 7 11 30.27 1025 10 16 N/A
3:35 pm 15:35 Sunny 61 16 31 -0.6 32 32 WNW 10 17 30.27 1025 10 16 N/A
3:55 pm 15:55 Sunny 61 16 30 -1 31 31 W 6 9 30.24 1024 10 16 N/A
4:15 pm 16:15 Sunny 61 16 30 -1.1 31 31 WSW 6 9 30.24 1024 10 16 N/A
4:35 pm 16:35 Sunny 61 16.1 30 -1.2 31 31 W 8 13 30.24 1024 10 16 N/A
4:55 pm 16:55 Sunny 61 16 29 -1.7 30 30 NW 5 7 30.24 1024 10 16 N/A
5:15 pm 17:15 Sunny 61 16 30 -1 31 31 WNW 6 9 30.21 1023 10 16 N/A
5:35 pm 17:35 Sunny 60 15.5 31 -0.6 33 33 WNW 3 6 30.21 1023 10 16 N/A
5:55 pm 17:55 Sunny 62 16.6 29 -1.8 29 29 WNW 7 11 30.21 1023 10 16 N/A
6:15 pm 18:15 Sunny 61 16 30 -1.2 31 31 WNW 3 6 30.21 1023 10 16 N/A
6:35 pm 18:35 Sunny 60 15.5 31 -0.6 33 33 WNW 5 7 30.21 1023 10 16 N/A
6:55 pm 18:55 Sunny 60 15.3 32 -0.1 35 35 WNW 3 6 30.21 1023 10 16 N/A
7:15 pm 19:15 Sunny 60 15.3 32 undefined 35 35 SW 3 6 30.21 1023 10 16 N/A
7:35 pm 19:35 Sunny 57 13.8 34 1.3 43 43 WNW 3 6 30.21 1023 10 16 N/A
7:55 pm 19:55 Clear 55 12.5 36 2 49 49 N N/A 30.21 1023 10 16 N/A
8:15 pm 20:15 Clear 53 11.9 39 3.8 58 58 N N/A 30.21 1023 10 16 N/A
8:35 pm 20:35 Clear 49 9.6 40 4.2 69 69 N N/A 30.18 1022 10 16 N/A
8:55 pm 20:55 Clear 49 9.6 41 5 73 73 N N/A 30.18 1022 10 16 N/A
9:15 pm 21:15 Clear 49 9.6 41 5.1 74 74 N N/A 30.18 1022 10 16 N/A
9:35 pm 21:35 Clear 49 9.4 42 5.3 76 76 N N/A 30.18 1022 10 16 N/A
9:55 pm 21:55 Clear 47 8.2 40 4.6 78 78 N N/A 30.18 1022 10 16 N/A
10:15 pm 22:15 Clear 44 6.8 39 4 83 83 N N/A 30.18 1022 10 16 N/A
10:35 pm 22:35 Clear 44 6.7 39 3.7 81 81 N N/A 30.18 1022 10 16 N/A
10:55 pm 22:55 Clear 44 6.6 39 3.7 82 82 N N/A 30.15 1021 10 16 N/A
11:15 pm 23:15 Clear 44 6.8 38 3.6 80 80 N N/A 30.15 1021 10 16 N/A
11:35 pm 23:35 Clear 44 6.7 39 3.7 81 81 N N/A 30.15 1021 10 16 N/A
11:55 pm 23:55 Clear 44 6.8 38 3.6 80 80 SW 5 7 30.15 1021 10 16 N/A

Powered by AerisWeather